Effective Sunday, March 17, 2024, the National Weather Service National Data Buoy Center will discontinue its Dial-A-Buoy Interactive Voice Response system. For more information, see Service Change Notice 24-06 (PDF).

Station EFLA1 - 8734536 - E Range Front Light Visibility, AL Image indicating link to RSS feed of recent meteorological observations for station EFLA1


Conditions at EFLA1 as of
(10:00 am CST)
1600 GMT on 03/01/2024:
     

Click on the graph icon in the table below to see a time series plot of the last five days of that observation.

5-day plot - Air Temperature Air Temperature (ATMP): 62.8 °F
5-day plot - Dew Point Dew Point (DEWP): 62.8 °F
5-day plot - Visibility Visibility (VIS): 4.3 nmi
NOS Water Level Observation Network Water Level
Previous observations
TIME
(CST)
5-day plot - Wind Direction
WDIR
 
5-day plot - Wind Speed
WSPD
kts
5-day plot - Wind Gust
GST
kts
5-day plot - Wave Height
WVHT
ft
5-day plot - Dominant Wave Period
DPD
sec
5-day plot - Average Wave Period
APD
sec
5-day plot - Mean Wave Direction
MWD
 
5-day plot - Atmospheric Pressure
PRES
in
5-day plot - Pressure Tendency
PTDY
in
5-day plot - Air Temperature
ATMP
°F
5-day plot - Water Temperature
WTMP
°F
5-day plot - Dew Point
DEWP
°F
5-day plot - Salinity
SAL
psu
5-day plot - Visibility
VIS
nmi
5-day plot - Tide (above MLLW)
TIDE
ft
2024-03-01 09:54 am--------- 62.8- 62.8- 4.3-
2024-03-01 09:48 am--------- 62.8- 62.8- 4.3-
2024-03-01 09:42 am--------- 62.6- 62.6- 4.3-
2024-03-01 09:36 am--------- 62.4- 62.4- 4.9-
2024-03-01 09:30 am--------- 62.4- 62.4- 4.9-
2024-03-01 09:24 am--------- 62.4- 62.4- 4.9-
2024-03-01 09:18 am--------- 62.2- 62.2- 4.9-
2024-03-01 09:12 am--------- 62.1- 62.1- 4.3-
2024-03-01 09:06 am--------- 61.9- 61.9- 2.4-
2024-03-01 09:00 am--------- 61.7- 61.7- 3.2-
2024-03-01 08:54 am--------- 61.7- 61.7- 4.3-
2024-03-01 08:48 am--------- 61.7- 61.7- 5.9-
2024-03-01 08:42 am--------- 61.5- 61.5- 5.9-
2024-03-01 08:36 am--------- 61.5- 61.5- 5.9-
2024-03-01 08:30 am--------- 61.3- 61.3- 4.9-
2024-03-01 08:24 am--------- 61.2- 61.2- 4.9-
2024-03-01 08:18 am--------- 61.0- 61.0- 4.3-
2024-03-01 08:12 am--------- 61.0- 61.0- 2.6-
2024-03-01 08:06 am--------- 61.0- 61.0- 1.9-
2024-03-01 08:00 am--------- 61.0- 61.0- 2.6-
2024-03-01 07:54 am--------- 61.0- 61.0- 2.6-
2024-03-01 07:48 am--------- 60.6- 60.6- 2.4-
2024-03-01 07:42 am--------- 60.3- 60.3- 3.2-
2024-03-01 07:36 am--------- 59.7- 59.7- 2.4-
2024-03-01 07:30 am--------- 59.5- 59.5- 2.6-
2024-03-01 07:24 am--------- 59.4- 59.4- 2.2-
2024-03-01 07:18 am--------- 59.2- 59.2- 2.2-
2024-03-01 07:12 am--------- 59.2- 59.2- 2.2-
2024-03-01 07:06 am--------- 58.8- 58.8- 1.6-
2024-03-01 07:00 am--------- 58.5- 58.5- 2.2-
2024-03-01 06:54 am--------- 58.1- 58.1- 2.4-
2024-03-01 06:48 am--------- 58.1- 58.1- 2.6-
2024-03-01 06:42 am--------- 57.9- 57.9- 2.6-
2024-03-01 06:36 am--------- 57.7- 57.7- 2.2-
2024-03-01 06:30 am--------- 57.4- 57.4- 2.2-
2024-03-01 06:24 am--------- 57.4- 57.4- 3.2-
2024-03-01 06:18 am--------- 56.8- 56.8- 3.2-
2024-03-01 06:12 am--------- 56.7- 56.7- 2.6-
2024-03-01 06:06 am--------- 56.5- 56.5- 3.2-
2024-03-01 06:00 am--------- 56.7- 56.7- 3.2-
2024-03-01 05:54 am--------- 56.5- 56.5- 3.2-
2024-03-01 05:48 am--------- 56.5- 56.5- 3.2-
2024-03-01 05:42 am--------- 56.5- 56.1- 3.2-
2024-03-01 05:36 am--------- 56.5- 55.9- 4.3-
2024-03-01 05:30 am--------- 56.1- 54.7- 4.3-
2024-03-01 05:24 am--------- 56.5- 54.7- 4.3-
2024-03-01 05:18 am--------- 56.7- 54.1- 4.3-
2024-03-01 05:12 am--------- 56.8- 54.3- 4.3-
2024-03-01 05:06 am--------- 57.0- 53.6- 4.3-
2024-03-01 05:00 am--------- 57.2- 53.2- 4.3-
2024-03-01 04:54 am--------- 57.2- 52.9- 4.3-
2024-03-01 04:48 am--------- 57.2- 51.6- 4.3-
2024-03-01 04:42 am--------- 57.2- 51.4- 4.9-
2024-03-01 04:36 am--------- 57.0- 50.7- 4.9-
2024-03-01 04:30 am--------- 57.0- 50.5- 4.9-
2024-03-01 04:24 am--------- 56.8- 49.8- 4.9-
2024-03-01 04:18 am--------- 56.7- 49.1- 4.9-
2024-03-01 04:12 am--------- 56.5- 48.7- 4.9-
2024-03-01 04:06 am--------- 56.3- 48.0- 5.9-
2024-03-01 04:00 am--------- 56.1- 47.8- 5.9-
2024-03-01 03:54 am--------- 55.9- 47.7- 4.9-
2024-03-01 03:48 am--------- 55.6- 46.8- 4.9-
2024-03-01 03:42 am--------- 55.9- 47.5- 5.9-
2024-03-01 03:36 am--------- 55.8- 46.2- 5.9-
2024-03-01 03:30 am--------- 56.1- 46.6- 4.9-
2024-03-01 03:24 am--------- 56.3- 45.7- 5.9-
2024-03-01 03:18 am--------- 56.3- 45.5- 5.9-
2024-03-01 03:12 am--------- 56.5- 45.5- 4.9-
2024-03-01 03:06 am--------- 56.5- 44.8- 4.9-
2024-03-01 03:00 am--------- 56.5- 44.8- 4.9-
2024-03-01 02:54 am--------- 56.8- 45.3- 4.9-
2024-03-01 02:48 am--------- 56.8- 43.9- 4.9-
2024-03-01 02:42 am--------- 57.2- 44.2- 4.3-
2024-03-01 02:36 am--------- 57.4- 43.9- 4.9-
2024-03-01 02:30 am--------- 57.6- 42.8- 4.9-
2024-03-01 02:24 am--------- 57.6- 43.7- 4.9-
2024-03-01 02:18 am--------- 57.7- 43.0- 4.9-
2024-03-01 02:12 am--------- 57.7- 42.8- 4.9-
2024-03-01 02:06 am--------- 57.7- 42.3- 4.9-
2024-03-01 02:00 am--------- 57.9- 41.9- 4.9-
2024-03-01 01:54 am--------- 57.9- 42.4- 4.9-
2024-03-01 01:48 am--------- 57.9- 42.8- 5.9-
2024-03-01 01:42 am--------- 57.7- 41.2- 4.9-
2024-03-01 01:36 am--------- 57.9- 41.9- 5.9-
2024-03-01 01:30 am--------- 57.9- 42.1- 5.9-
2024-03-01 01:24 am--------- 57.9- 41.5- 5.9-
2024-03-01 01:18 am--------- 57.7- 41.7- 4.9-
2024-03-01 01:12 am--------- 57.6- 41.4- 4.9-
2024-03-01 01:06 am--------- 57.6- 44.2- 5.9-
2024-03-01 01:00 am--------- 57.6- 44.2- 5.9-
2024-03-01 12:54 am--------- 58.1- 44.8- 5.9-
2024-03-01 12:48 am--------- 57.7- 42.8- 5.9-
2024-03-01 12:42 am--------- 57.7- 43.7- 5.9-
2024-03-01 12:36 am--------- 57.9- 43.2- 5.9-
2024-03-01 12:30 am--------- 57.7- 42.4- 5.9-
2024-03-01 12:24 am--------- 57.9- 42.4- 5.9-
2024-03-01 12:18 am--------- 57.7- 42.8- 5.9-
2024-03-01 12:12 am--------- 57.6- 41.4- 5.9-
2024-03-01 12:06 am--------- 57.6- 42.1- 5.9-
2024-02-29 11:48 pm--------- 57.6- 42.6- 5.9-
2024-02-29 11:42 pm--------- 57.4- 42.3- 5.9-
2024-02-29 11:36 pm--------- 57.2- 41.2- 5.9-
2024-02-29 11:30 pm--------- 57.2- 42.1- 5.9-
2024-02-29 11:24 pm--------- 57.4- 42.3- 5.9-
2024-02-29 11:18 pm--------- 57.2- 42.1- 5.9-
2024-02-29 11:12 pm--------- 57.4- 42.1- 5.9-
2024-02-29 11:06 pm--------- 57.6- 43.9- 5.9-
2024-02-29 11:00 pm--------- 57.7- 42.8- 5.9-
2024-02-29 10:54 pm--------- 58.1- 41.4- 4.9-
2024-02-29 10:48 pm--------- 58.1- 41.7- 5.9-
2024-02-29 10:42 pm--------- 57.9- 40.8- 5.9-
2024-02-29 10:36 pm--------- 58.1- 42.6- 4.9-
2024-02-29 10:30 pm--------- 58.1- 41.4- 5.9-
2024-02-29 10:24 pm--------- 58.3- 41.2- 5.9-
2024-02-29 10:18 pm--------- 58.1- 42.3- 5.9-
2024-02-29 10:12 pm--------- 57.9- 40.5- 5.9-
2024-02-29 10:06 pm--------- 57.7- 39.2- 5.9-
2024-02-29 10:00 pm--------- 57.7- 38.5- 5.9-
2024-02-29 09:54 pm--------- 57.7- 38.8- 5.9-
2024-02-29 09:48 pm--------- 57.7- 37.4- 5.9-
2024-02-29 09:42 pm--------- 57.7- 38.7- 5.9-
2024-02-29 09:36 pm--------- 57.6- 38.1- 5.9-
2024-02-29 09:30 pm--------- 57.4- 37.8- 5.9-
2024-02-29 09:24 pm--------- 57.4- 37.2- 5.9-
2024-02-29 09:18 pm--------- 57.4- 36.7- 5.9-
2024-02-29 09:12 pm--------- 57.4- 38.3- 5.9-
2024-02-29 09:06 pm--------- 57.4- 38.3- 5.9-
2024-02-29 09:00 pm--------- 57.4- 38.8- 5.9-
2024-02-29 08:54 pm--------- 57.2- 37.6- 5.9-
2024-02-29 08:48 pm--------- 57.2- 36.3- 5.9-
2024-02-29 08:42 pm--------- 57.2- 36.3- 5.9-
2024-02-29 08:36 pm--------- 57.2- 36.0- 5.9-
2024-02-29 08:30 pm--------- 57.0- 36.3- 5.9-
2024-02-29 08:24 pm--------- 57.2- 37.4- 5.9-
2024-02-29 08:18 pm--------- 57.0- 36.0- 5.9-
2024-02-29 08:12 pm--------- 57.0- 36.3- 5.9-
2024-02-29 08:06 pm--------- 57.0- 35.8- 5.9-
2024-02-29 08:00 pm--------- 57.0- 35.6- 5.9-
2024-02-29 07:54 pm--------- 56.8- 35.6- 5.9-
2024-02-29 07:48 pm--------- 56.8- 35.8- 5.9-
2024-02-29 07:42 pm--------- 56.8- 36.3- 5.9-
2024-02-29 07:36 pm--------- 56.8- 37.2- 5.9-
2024-02-29 07:30 pm--------- 56.7- 34.0- 5.9-
2024-02-29 07:24 pm--------- 56.7- 34.3- 5.9-
2024-02-29 07:18 pm--------- 56.7- 34.7- 5.9-
2024-02-29 07:12 pm--------- 56.7- 35.4- 5.9-
2024-02-29 07:06 pm--------- 56.7- 33.4- 5.9-
2024-02-29 07:00 pm--------- 56.7- 33.3- 5.9-
2024-02-29 06:54 pm--------- 56.7- 34.3- 5.9-
2024-02-29 06:48 pm--------- 56.7- 33.8- 5.9-
2024-02-29 06:42 pm--------- 56.7- 33.1- 5.9-
2024-02-29 06:36 pm--------- 56.7- 32.5- 5.9-
2024-02-29 06:30 pm--------- 56.8- 34.0- 5.9-
2024-02-29 06:24 pm--------- 56.7- 32.5- 5.9-
2024-02-29 06:18 pm--------- 56.7- 32.7- 5.9-
2024-02-29 06:12 pm--------- 56.7- 33.3- 5.9-
2024-02-29 06:06 pm--------- 56.7- 34.0- 5.9-
2024-02-29 06:00 pm--------- 56.7- 33.1- 4.9-
2024-02-29 05:54 pm--------- 56.7- 33.8- 5.9-
2024-02-29 05:48 pm--------- 56.7- 35.1- 5.9-
2024-02-29 05:42 pm--------- 56.5- 33.3- 5.9-
2024-02-29 05:36 pm--------- 56.3- 32.4- 4.9-
2024-02-29 04:48 pm--------- 56.8- 34.5- 5.9-
2024-02-29 04:42 pm--------- 56.7- 33.6- 5.9-
2024-02-29 04:36 pm--------- 56.7- 32.5- 5.9-
2024-02-29 04:30 pm--------- 56.8- 33.8- 5.9-
2024-02-29 04:24 pm--------- 56.7- 32.9- 5.9-
2024-02-29 04:18 pm--------- 56.7- 31.8- 5.9-
2024-02-29 04:12 pm--------- 56.7- 31.8- 5.9-
2024-02-29 04:06 pm--------- 56.7- 33.1- 5.9-
2024-02-29 04:00 pm--------- 56.7- 33.4- 5.9-
2024-02-29 03:54 pm--------- 56.5- 32.2- 5.9-
2024-02-29 03:48 pm--------- 56.7- 34.2- 5.9-
2024-02-29 03:42 pm--------- 56.7- 32.0- 5.9-
2024-02-29 03:36 pm--------- 56.7- 34.3- 5.9-
2024-02-29 03:30 pm--------- 56.8- 34.0- 5.9-
2024-02-29 03:24 pm--------- 56.7- 34.0- 4.9-
2024-02-29 03:18 pm--------- 56.7- 33.6- 5.9-
2024-02-29 03:12 pm--------- 56.7- 33.1- 5.9-
2024-02-29 03:06 pm--------- 56.5- 31.3- 5.9-
2024-02-29 03:00 pm--------- 56.8- 33.3- 4.9-
2024-02-29 02:54 pm--------- 56.7- 33.3- 4.3-
2024-02-29 02:48 pm--------- 56.7- 32.7- 4.9-
2024-02-29 02:42 pm--------- 56.8- 34.5- 4.3-
2024-02-29 02:36 pm--------- 56.7- 32.7- 3.2-
2024-02-29 02:30 pm--------- 56.7- 32.5- 2.2-
2024-02-29 02:24 pm--------- 56.5- 33.3- 1.9-
2024-02-29 02:18 pm--------- 56.3- 33.6- 5.9-
2024-02-29 02:12 pm--------- 56.1- 32.4- 5.9-
2024-02-29 02:06 pm--------- 55.9- 32.0- 5.9-
2024-02-29 02:00 pm--------- 55.9- 31.6- 5.9-
2024-02-29 01:54 pm--------- 55.9- 31.6- 5.9-
2024-02-29 01:48 pm--------- 55.8- 30.0- 5.9-
2024-02-29 01:42 pm--------- 55.9- 30.9- 5.9-
2024-02-29 01:36 pm--------- 55.9- 31.1- 5.9-
2024-02-29 01:30 pm--------- 56.1- 31.1- 5.9-
2024-02-29 01:24 pm--------- 56.8- 32.7- 5.9-
2024-02-29 01:18 pm--------- 56.5- 31.1- 5.9-
2024-02-29 01:12 pm--------- 56.7- 32.4- 5.9-
2024-02-29 01:06 pm--------- 56.5- 31.3- 5.9-
2024-02-29 01:00 pm--------- 55.9- 28.2- 5.9-
2024-02-29 12:54 pm--------- 56.1- 29.7- 5.9-
2024-02-29 12:48 pm--------- 55.9- 30.4- 4.3-
2024-02-29 12:42 pm--------- 55.6- 30.0- 4.3-
2024-02-29 12:36 pm--------- 55.6- 28.6- 4.3-
2024-02-29 12:30 pm--------- 55.4- 29.1- 4.9-
2024-02-29 12:24 pm--------- 55.2- 28.8- 4.9-
2024-02-29 12:18 pm--------- 55.2- 29.3- 4.3-
2024-02-29 12:12 pm--------- 55.0- 28.4- 4.3-
2024-02-29 12:06 pm--------- 55.0- 29.7- 4.3-
2024-02-29 12:00 pm--------- 54.9- 26.8- 4.3-
2024-02-29 11:54 am--------- 54.9- 27.5- 5.9-
2024-02-29 11:48 am--------- 54.7- 29.1- 5.9-
2024-02-29 11:42 am--------- 54.5- 28.9- 5.9-
2024-02-29 11:36 am--------- 54.3- 29.5- 5.9-
2024-02-29 11:30 am--------- 54.1- 27.0- 5.9-
2024-02-29 11:24 am--------- 54.1- 27.0- 5.9-
2024-02-29 11:18 am--------- 54.0- 28.8- 5.9-
2024-02-29 11:12 am--------- 54.0- 28.9- 5.9-
2024-02-29 11:06 am--------- 54.0- 27.0- 5.9-
2024-02-29 11:00 am--------- 54.0- 28.8- 3.2-
2024-02-29 10:54 am--------- 53.8- 27.5- 5.9-
2024-02-29 10:48 am--------- 53.4- 26.4- 5.9-
2024-02-29 10:42 am--------- 53.6- 28.0- 4.3-
2024-02-29 10:36 am--------- 53.4- 26.4- 4.9-
2024-02-29 10:30 am--------- 53.2- 27.3- 3.2-
2024-02-29 10:24 am--------- 53.2- 27.9- 4.3-
2024-02-29 10:18 am--------- 53.2- 27.3- 5.9-
2024-02-29 10:12 am--------- 53.4- 29.1- 5.9-
2024-02-29 10:06 am--------- 53.2- 27.0- 5.9-
2024-02-29 10:00 am--------- 53.4- 27.7- 5.9-
2024-02-29 09:54 am--------- 53.1- 25.0- 5.9-